Location: Newark
(5.5500°N, 0.2500°W)
Time: 20:46:33
(UTC+00:00)

LightSail 2 - Pass Details

Date: 21 September 2019
Orbit: 707 x 722 km, 24.0° (Epoch: 18 October)

Event Time Altitude Azimuth Distance (km) Brightness Sun altitude
Exits shadow 04:42:54 12° 325° (NW) 2,005 7.2 -17.7°
Maximum altitude 04:44:37 14° 346° (NNW) 1,888 7.2 -17.2°
Drops below altitude 10° 04:47:17 10° 18° (NNE) 2,156 7.9 -16.6°
Sets 04:50:52 0° 43° (NE) 3,075 9.2 -15.7°
